{"data":{"norad_id":58328,"epoch":"2026-09-19T05:14:32.421984Z","epoch_age_seconds":125163,"freshness":"FRESH","line1":"1 58328U 23174CA  26262.21843081  .00023782  00000+0  34479-3 0  9999","line2":"2 58328  97.3977 356.0536 0006229 154.8252 205.3308 15.55833172160271","mean_motion":15.55833172,"eccentricity":0.0006229,"inclination_deg":97.3977,"raan_deg":356.0536,"arg_perigee_deg":154.8252,"mean_anomaly_deg":205.3308,"bstar":0.00034479,"rev_number":16027,"period_min":92.554910508104,"perigee_km":395.50984760951,"apogee_km":403.95371653822,"semimajor_km":6777.8687820739,"source":"CELESTRAK","updated_at":"2026-09-20T09:00:34.711181Z"}}